Year,Month,Day,Hour,Minute,Value (Times are PST for temperature in C)
2017,11,07,00,00,1.80
2017,11,07,00,01,1.80
2017,11,07,00,02,1.80
2017,11,07,00,03,1.80
2017,11,07,00,04,1.80
2017,11,07,00,05,1.80
2017,11,07,00,06,1.80
2017,11,07,00,07,1.90
2017,11,07,00,08,1.90
2017,11,07,00,09,1.90
2017,11,07,00,10,2.00
2017,11,07,00,11,2.00
2017,11,07,00,12,2.00
2017,11,07,00,13,2.10
2017,11,07,00,14,2.00
2017,11,07,00,15,2.00
2017,11,07,00,16,2.10
2017,11,07,00,17,2.00
2017,11,07,00,18,2.00
2017,11,07,00,19,2.10
2017,11,07,00,20,2.10
2017,11,07,00,21,2.10
2017,11,07,00,22,2.10
2017,11,07,00,23,2.10
2017,11,07,00,24,2.10
2017,11,07,00,25,2.10
2017,11,07,00,26,2.10
2017,11,07,00,27,2.10
2017,11,07,00,28,2.10
2017,11,07,00,29,2.10
2017,11,07,00,30,2.10
2017,11,07,00,31,2.00
2017,11,07,00,32,2.00
2017,11,07,00,33,1.90
2017,11,07,00,34,1.90
2017,11,07,00,35,1.90
2017,11,07,00,36,1.90
2017,11,07,00,37,1.90
2017,11,07,00,38,1.90
2017,11,07,00,39,1.90
2017,11,07,00,40,1.90
2017,11,07,00,41,1.90
2017,11,07,00,42,1.90
2017,11,07,00,43,1.90
2017,11,07,00,44,1.90
2017,11,07,00,45,1.90
2017,11,07,00,46,1.80
2017,11,07,00,47,1.80
2017,11,07,00,48,1.80
2017,11,07,00,49,1.80
2017,11,07,00,50,1.80
2017,11,07,00,51,1.70
2017,11,07,00,52,1.70
2017,11,07,00,53,1.70
2017,11,07,00,54,1.70
2017,11,07,00,55,1.70
2017,11,07,00,56,1.60
2017,11,07,00,57,1.60
2017,11,07,00,58,1.60
2017,11,07,00,59,1.60
2017,11,07,01,00,1.50
2017,11,07,01,01,1.40
2017,11,07,01,02,1.40
2017,11,07,01,03,1.40
2017,11,07,01,04,1.30
2017,11,07,01,05,1.30
2017,11,07,01,06,1.30
2017,11,07,01,07,1.20
2017,11,07,01,08,1.20
2017,11,07,01,09,1.10
2017,11,07,01,10,1.10
2017,11,07,01,11,1.00
2017,11,07,01,12,1.00
2017,11,07,01,13,1.00
2017,11,07,01,14,0.90
2017,11,07,01,15,0.80
2017,11,07,01,16,0.80
2017,11,07,01,17,0.80
2017,11,07,01,18,0.70
2017,11,07,01,19,0.70
2017,11,07,01,20,0.70
2017,11,07,01,21,0.60
2017,11,07,01,22,0.60
2017,11,07,01,23,0.60
2017,11,07,01,24,0.60
2017,11,07,01,25,0.60
2017,11,07,01,26,0.60
2017,11,07,01,27,0.60
2017,11,07,01,28,0.60
2017,11,07,01,29,0.60
2017,11,07,01,30,0.60
2017,11,07,01,31,0.60
2017,11,07,01,32,0.60
2017,11,07,01,33,0.60
2017,11,07,01,34,0.60
2017,11,07,01,35,0.60
2017,11,07,01,36,0.60
2017,11,07,01,37,0.60
2017,11,07,01,38,0.60
2017,11,07,01,39,0.60
2017,11,07,01,40,0.60
2017,11,07,01,41,0.60
2017,11,07,01,42,0.60
2017,11,07,01,43,0.60
2017,11,07,01,44,0.50
2017,11,07,01,45,0.50
2017,11,07,01,46,0.50
2017,11,07,01,47,0.50
2017,11,07,01,48,0.60
2017,11,07,01,49,0.60
2017,11,07,01,50,0.70
2017,11,07,01,51,0.70
2017,11,07,01,52,0.70
2017,11,07,01,53,0.70
2017,11,07,01,54,0.70
2017,11,07,01,55,0.70
2017,11,07,01,56,0.70
2017,11,07,01,57,0.70
2017,11,07,01,58,0.70
2017,11,07,01,59,0.80
2017,11,07,02,00,0.80
2017,11,07,02,01,0.90
2017,11,07,02,02,1.10
2017,11,07,02,03,1.20
2017,11,07,02,04,1.20
2017,11,07,02,05,1.30
2017,11,07,02,06,1.40
2017,11,07,02,07,1.50
2017,11,07,02,08,1.50
2017,11,07,02,09,1.50
2017,11,07,02,10,1.40
2017,11,07,02,11,1.40
2017,11,07,02,12,1.30
2017,11,07,02,13,1.20
2017,11,07,02,14,1.20
2017,11,07,02,15,1.20
2017,11,07,02,16,1.10
2017,11,07,02,17,1.10
2017,11,07,02,18,1.10
2017,11,07,02,19,1.10
2017,11,07,02,20,1.20
2017,11,07,02,21,1.20
2017,11,07,02,22,1.30
2017,11,07,02,23,1.30
2017,11,07,02,24,1.40
2017,11,07,02,25,1.30
2017,11,07,02,26,1.40
2017,11,07,02,27,1.40
2017,11,07,02,28,1.40
2017,11,07,02,29,1.50
2017,11,07,02,30,1.60
2017,11,07,02,31,1.70
2017,11,07,02,32,1.80
2017,11,07,02,33,1.80
2017,11,07,02,34,1.90
2017,11,07,02,35,2.00
2017,11,07,02,36,2.10
2017,11,07,02,37,2.20
2017,11,07,02,38,2.20
2017,11,07,02,39,2.20
2017,11,07,02,40,2.30
2017,11,07,02,41,2.30
2017,11,07,02,42,2.30
2017,11,07,02,43,2.30
2017,11,07,02,44,2.30
2017,11,07,02,45,2.30
2017,11,07,02,46,2.30
2017,11,07,02,47,2.20
2017,11,07,02,48,2.10
2017,11,07,02,49,2.00
2017,11,07,02,50,2.00
2017,11,07,02,51,1.90
2017,11,07,02,52,1.90
2017,11,07,02,53,1.80
2017,11,07,02,54,1.80
2017,11,07,02,55,1.80
2017,11,07,02,56,1.80
2017,11,07,02,57,1.80
2017,11,07,02,58,1.80
2017,11,07,02,59,1.90
2017,11,07,03,00,2.00
2017,11,07,03,01,2.00
2017,11,07,03,02,2.10
2017,11,07,03,03,2.20
2017,11,07,03,04,2.20
2017,11,07,03,05,2.30
2017,11,07,03,06,2.40
2017,11,07,03,07,2.50
2017,11,07,03,08,2.50
2017,11,07,03,09,2.60
2017,11,07,03,10,2.70
2017,11,07,03,11,2.70
2017,11,07,03,12,2.70
2017,11,07,03,13,2.70
2017,11,07,03,14,2.70
2017,11,07,03,15,2.70
2017,11,07,03,16,2.70
2017,11,07,03,17,2.70
2017,11,07,03,18,2.70
2017,11,07,03,19,2.70
2017,11,07,03,20,2.60
2017,11,07,03,21,2.60
2017,11,07,03,22,2.60
2017,11,07,03,23,2.60
2017,11,07,03,24,2.60
2017,11,07,03,25,2.60
2017,11,07,03,26,2.60
2017,11,07,03,27,2.60
2017,11,07,03,28,2.60
2017,11,07,03,29,2.70
2017,11,07,03,30,2.70
2017,11,07,03,31,2.70
2017,11,07,03,32,2.70
2017,11,07,03,33,2.70
2017,11,07,03,34,2.70
2017,11,07,03,35,2.70
2017,11,07,03,36,2.70
2017,11,07,03,37,2.70
2017,11,07,03,38,2.70
2017,11,07,03,39,2.70
2017,11,07,03,40,2.70
2017,11,07,03,41,2.70
2017,11,07,03,42,2.70
2017,11,07,03,43,2.70
2017,11,07,03,44,2.70
2017,11,07,03,45,2.70
2017,11,07,03,46,2.70
2017,11,07,03,47,2.70
2017,11,07,03,48,2.70
2017,11,07,03,49,2.70
2017,11,07,03,50,2.80
2017,11,07,03,51,2.80
2017,11,07,03,52,2.80
2017,11,07,03,53,2.80
2017,11,07,03,54,2.90
2017,11,07,03,55,2.90
2017,11,07,03,56,2.90
2017,11,07,03,57,2.90
2017,11,07,03,58,2.90
2017,11,07,03,59,2.90
2017,11,07,04,00,2.90
2017,11,07,04,01,2.90
2017,11,07,04,02,2.90
2017,11,07,04,03,2.90
2017,11,07,04,04,2.90
2017,11,07,04,05,2.90
2017,11,07,04,06,2.90
2017,11,07,04,07,2.80
2017,11,07,04,08,2.80
2017,11,07,04,09,2.80
2017,11,07,04,10,2.90
2017,11,07,04,11,2.90
2017,11,07,04,12,3.00
2017,11,07,04,13,3.10
2017,11,07,04,14,3.10
2017,11,07,04,15,3.10
2017,11,07,04,16,3.20
2017,11,07,04,17,3.20
2017,11,07,04,18,3.20
2017,11,07,04,19,3.20
2017,11,07,04,20,3.20
2017,11,07,04,21,3.20
2017,11,07,04,22,3.20
2017,11,07,04,23,3.30
2017,11,07,04,24,3.20
2017,11,07,04,25,3.20
2017,11,07,04,26,3.20
2017,11,07,04,27,3.20
2017,11,07,04,28,3.20
2017,11,07,04,29,3.20
2017,11,07,04,30,3.20
2017,11,07,04,31,3.20
2017,11,07,04,32,3.20
2017,11,07,04,33,3.20
2017,11,07,04,34,3.20
2017,11,07,04,35,3.30
2017,11,07,04,36,3.30
2017,11,07,04,37,3.30
2017,11,07,04,38,3.30
2017,11,07,04,39,3.30
2017,11,07,04,40,3.30
2017,11,07,04,41,3.30
2017,11,07,04,42,3.20
2017,11,07,04,43,3.20
2017,11,07,04,44,3.20
2017,11,07,04,45,3.20
2017,11,07,04,46,3.20
2017,11,07,04,47,3.20
2017,11,07,04,48,3.20
2017,11,07,04,49,3.20
2017,11,07,04,50,3.20
2017,11,07,04,51,3.20
2017,11,07,04,52,3.20
2017,11,07,04,53,3.20
2017,11,07,04,54,3.20
2017,11,07,04,55,3.20
2017,11,07,04,56,3.20
2017,11,07,04,57,3.20
2017,11,07,04,58,3.30
2017,11,07,04,59,3.30
2017,11,07,05,00,3.30
2017,11,07,05,01,3.30
2017,11,07,05,02,3.30
2017,11,07,05,03,3.40
2017,11,07,05,04,3.40
2017,11,07,05,05,3.50
2017,11,07,05,06,3.50
2017,11,07,05,07,3.50
2017,11,07,05,08,3.60
2017,11,07,05,09,3.70
2017,11,07,05,10,3.80
2017,11,07,05,11,3.80
2017,11,07,05,12,3.90
2017,11,07,05,13,4.00
2017,11,07,05,14,4.00
2017,11,07,05,15,4.10
2017,11,07,05,16,4.10
2017,11,07,05,17,4.10
2017,11,07,05,18,4.20
2017,11,07,05,19,4.20
2017,11,07,05,20,4.30
2017,11,07,05,21,4.30
2017,11,07,05,22,4.30
2017,11,07,05,23,4.30
2017,11,07,05,24,4.30
2017,11,07,05,25,4.40
2017,11,07,05,26,4.40
2017,11,07,05,27,4.40
2017,11,07,05,28,4.40
2017,11,07,05,29,4.40
2017,11,07,05,30,4.40
2017,11,07,05,31,4.40
2017,11,07,05,32,4.40
2017,11,07,05,33,4.40
2017,11,07,05,34,4.40
2017,11,07,05,35,4.40
2017,11,07,05,36,4.40
2017,11,07,05,37,4.40
2017,11,07,05,38,4.40
2017,11,07,05,39,4.40
2017,11,07,05,40,4.40
2017,11,07,05,41,4.40
2017,11,07,05,42,4.40
2017,11,07,05,43,4.40
2017,11,07,05,44,4.50
2017,11,07,05,45,4.50
2017,11,07,05,46,4.50
2017,11,07,05,47,4.50
2017,11,07,05,48,4.50
2017,11,07,05,49,4.50
2017,11,07,05,50,4.50
2017,11,07,05,51,4.50
2017,11,07,05,52,4.50
2017,11,07,05,53,4.50
2017,11,07,05,54,4.50
2017,11,07,05,55,4.50
2017,11,07,05,56,4.50
2017,11,07,05,57,4.50
2017,11,07,05,58,4.50
2017,11,07,05,59,4.50
2017,11,07,06,00,4.50
2017,11,07,06,01,4.50
2017,11,07,06,02,4.50
2017,11,07,06,03,4.50
2017,11,07,06,04,4.50
2017,11,07,06,05,4.50
2017,11,07,06,06,4.50
2017,11,07,06,07,4.50
2017,11,07,06,08,4.50
2017,11,07,06,09,4.50
2017,11,07,06,10,4.50
2017,11,07,06,11,4.50
2017,11,07,06,12,4.50
2017,11,07,06,13,4.50
2017,11,07,06,14,4.50
2017,11,07,06,15,4.50
2017,11,07,06,16,4.50
2017,11,07,06,17,4.50
2017,11,07,06,18,4.60
2017,11,07,06,19,4.60
2017,11,07,06,20,4.70
2017,11,07,06,21,4.70
2017,11,07,06,22,4.70
2017,11,07,06,23,4.70
2017,11,07,06,24,4.60
2017,11,07,06,25,4.60
2017,11,07,06,26,4.60
2017,11,07,06,27,4.60
2017,11,07,06,28,4.60
2017,11,07,06,29,4.60
2017,11,07,06,30,4.60
2017,11,07,06,31,4.60
2017,11,07,06,32,4.60
2017,11,07,06,33,4.60
2017,11,07,06,34,4.60
2017,11,07,06,35,4.60
2017,11,07,06,36,4.60
2017,11,07,06,37,4.50
2017,11,07,06,38,4.50
2017,11,07,06,39,4.50
2017,11,07,06,40,4.40
2017,11,07,06,41,4.40
2017,11,07,06,42,4.40
2017,11,07,06,43,4.40
2017,11,07,06,44,4.30
2017,11,07,06,45,4.30
2017,11,07,06,46,4.30
2017,11,07,06,47,4.30
2017,11,07,06,48,4.30
2017,11,07,06,49,4.30
2017,11,07,06,50,4.30
2017,11,07,06,51,4.30
2017,11,07,06,52,4.30
2017,11,07,06,53,4.30
2017,11,07,06,54,4.30
2017,11,07,06,55,4.30
2017,11,07,06,56,4.30
2017,11,07,06,57,4.30
2017,11,07,06,58,4.30
2017,11,07,06,59,4.20
2017,11,07,07,00,4.20
2017,11,07,07,01,4.30
2017,11,07,07,02,4.30
2017,11,07,07,03,4.30
2017,11,07,07,04,4.30
2017,11,07,07,05,4.30
2017,11,07,07,06,4.30
2017,11,07,07,07,4.30
2017,11,07,07,08,4.30
2017,11,07,07,09,4.30
2017,11,07,07,10,4.30
2017,11,07,07,11,4.30
2017,11,07,07,12,4.30
2017,11,07,07,13,4.30
2017,11,07,07,14,4.30
2017,11,07,07,15,4.30
2017,11,07,07,16,4.40
2017,11,07,07,17,4.40
2017,11,07,07,18,4.40
2017,11,07,07,19,4.40
2017,11,07,07,20,4.40
2017,11,07,07,21,4.40
2017,11,07,07,22,4.40
2017,11,07,07,23,4.40
2017,11,07,07,24,4.40
2017,11,07,07,25,4.50
2017,11,07,07,26,4.50
2017,11,07,07,27,4.60
2017,11,07,07,28,4.60
2017,11,07,07,29,4.70
2017,11,07,07,30,4.70
2017,11,07,07,31,4.70
2017,11,07,07,32,4.80
2017,11,07,07,33,4.80
2017,11,07,07,34,4.80
2017,11,07,07,35,4.80
2017,11,07,07,36,4.80
2017,11,07,07,37,4.90
2017,11,07,07,38,4.90
2017,11,07,07,39,4.90
2017,11,07,07,40,4.90
2017,11,07,07,41,4.90
2017,11,07,07,42,4.90
2017,11,07,07,43,4.90
2017,11,07,07,44,4.90
2017,11,07,07,45,4.90
2017,11,07,07,46,5.00
2017,11,07,07,47,5.00
2017,11,07,07,48,5.00
2017,11,07,07,49,5.10
2017,11,07,07,50,5.10
2017,11,07,07,51,5.10
2017,11,07,07,52,5.10
2017,11,07,07,53,5.10
2017,11,07,07,54,5.10
2017,11,07,07,55,5.10
2017,11,07,07,56,5.10
2017,11,07,07,57,5.00
2017,11,07,07,58,5.00
2017,11,07,07,59,5.00
2017,11,07,08,00,5.00
2017,11,07,08,01,5.00
2017,11,07,08,02,5.00
2017,11,07,08,03,5.00
2017,11,07,08,04,5.00
2017,11,07,08,05,5.10
2017,11,07,08,06,5.10
2017,11,07,08,07,5.10
2017,11,07,08,08,5.10
2017,11,07,08,09,5.20
2017,11,07,08,10,5.20
2017,11,07,08,11,5.20
2017,11,07,08,12,5.20
2017,11,07,08,13,5.20
2017,11,07,08,14,5.20
2017,11,07,08,15,5.20
2017,11,07,08,16,5.20
2017,11,07,08,17,5.20
2017,11,07,08,18,5.20
2017,11,07,08,19,5.10
2017,11,07,08,20,5.10
2017,11,07,08,21,5.10
2017,11,07,08,22,5.10
2017,11,07,08,23,5.10
2017,11,07,08,24,5.10
2017,11,07,08,25,5.10
2017,11,07,08,26,5.10
2017,11,07,08,27,5.10
2017,11,07,08,28,5.10
2017,11,07,08,29,5.10
2017,11,07,08,30,5.10
2017,11,07,08,31,5.10
2017,11,07,08,32,5.10
2017,11,07,08,33,5.20
2017,11,07,08,34,5.20
2017,11,07,08,35,5.20
2017,11,07,08,36,5.30
2017,11,07,08,37,5.30
2017,11,07,08,38,5.30
2017,11,07,08,39,5.30
2017,11,07,08,40,5.40
2017,11,07,08,41,5.40
2017,11,07,08,42,5.40
2017,11,07,08,43,5.40
2017,11,07,08,44,5.40
2017,11,07,08,45,5.40
2017,11,07,08,46,5.40
2017,11,07,08,47,5.40
2017,11,07,08,48,5.40
2017,11,07,08,49,5.40
2017,11,07,08,50,5.40
2017,11,07,08,51,5.40
2017,11,07,08,52,5.40
2017,11,07,08,53,5.40
2017,11,07,08,54,5.40
2017,11,07,08,55,5.40
2017,11,07,08,56,5.50
2017,11,07,08,57,5.50
2017,11,07,08,58,5.50
2017,11,07,08,59,5.50
2017,11,07,09,00,5.50
2017,11,07,09,01,5.50
2017,11,07,09,02,5.50
2017,11,07,09,03,5.50
2017,11,07,09,04,5.50
2017,11,07,09,05,5.50
2017,11,07,09,06,5.50
2017,11,07,09,07,5.60
2017,11,07,09,08,5.60
2017,11,07,09,09,5.60
2017,11,07,09,10,5.60
2017,11,07,09,11,5.60
2017,11,07,09,12,5.60
2017,11,07,09,13,5.60
2017,11,07,09,14,5.60
2017,11,07,09,15,5.60
2017,11,07,09,16,5.60
2017,11,07,09,17,5.60
2017,11,07,09,18,5.60
2017,11,07,09,19,5.60
2017,11,07,09,20,5.60
2017,11,07,09,21,5.60
2017,11,07,09,22,5.60
2017,11,07,09,23,5.60
2017,11,07,09,24,5.60
2017,11,07,09,25,5.60
2017,11,07,09,26,5.60
2017,11,07,09,27,5.70
2017,11,07,09,28,5.70
2017,11,07,09,29,5.80
2017,11,07,09,30,5.80
2017,11,07,09,31,5.80
2017,11,07,09,32,5.90
2017,11,07,09,33,5.90
2017,11,07,09,34,5.90
2017,11,07,09,35,6.00
2017,11,07,09,36,6.00
2017,11,07,09,37,6.00
2017,11,07,09,38,6.10
2017,11,07,09,39,6.10
2017,11,07,09,40,6.10
2017,11,07,09,41,6.10
2017,11,07,09,42,6.20
2017,11,07,09,43,6.20
2017,11,07,09,44,6.20
2017,11,07,09,45,6.20
2017,11,07,09,46,6.20
2017,11,07,09,47,6.30
2017,11,07,09,48,6.30
2017,11,07,09,49,6.30
2017,11,07,09,50,6.30
2017,11,07,09,51,6.30
2017,11,07,09,52,6.30
2017,11,07,09,53,6.40
2017,11,07,09,54,6.40
2017,11,07,09,55,6.40
2017,11,07,09,56,6.40
2017,11,07,09,57,6.40
2017,11,07,09,58,6.50
2017,11,07,09,59,6.50
2017,11,07,10,00,6.50
2017,11,07,10,01,6.50
2017,11,07,10,02,6.50
2017,11,07,10,03,6.60
2017,11,07,10,04,6.60
2017,11,07,10,05,6.60
2017,11,07,10,06,6.60
2017,11,07,10,07,6.60
2017,11,07,10,08,6.70
2017,11,07,10,09,6.70
2017,11,07,10,10,6.70
2017,11,07,10,11,6.70
2017,11,07,10,12,6.70
2017,11,07,10,13,6.70
2017,11,07,10,14,6.70
2017,11,07,10,15,6.70
2017,11,07,10,16,6.80
2017,11,07,10,17,6.80
2017,11,07,10,18,6.80
2017,11,07,10,19,6.90
2017,11,07,10,20,6.90
2017,11,07,10,21,6.90
2017,11,07,10,22,6.90
2017,11,07,10,23,7.00
2017,11,07,10,24,7.00
2017,11,07,10,25,7.10
2017,11,07,10,26,7.10
2017,11,07,10,27,7.10
2017,11,07,10,28,7.20
2017,11,07,10,29,7.20
2017,11,07,10,30,7.20
2017,11,07,10,31,7.20
2017,11,07,10,32,7.20
2017,11,07,10,33,7.20
2017,11,07,10,34,7.20
2017,11,07,10,35,7.20
2017,11,07,10,36,7.20
2017,11,07,10,37,7.10
2017,11,07,10,38,7.10
2017,11,07,10,39,7.10
2017,11,07,10,40,7.10
2017,11,07,10,41,7.10
2017,11,07,10,42,7.20
2017,11,07,10,43,7.20
2017,11,07,10,44,7.20
2017,11,07,10,45,7.20
2017,11,07,10,46,7.20
2017,11,07,10,47,7.20
2017,11,07,10,48,7.20
2017,11,07,10,49,7.20
2017,11,07,10,50,7.20
2017,11,07,10,51,7.20
2017,11,07,10,52,7.20
2017,11,07,10,53,7.20
2017,11,07,10,54,7.20
2017,11,07,10,55,7.20
2017,11,07,10,56,7.20
2017,11,07,10,57,7.20
2017,11,07,10,58,7.20
2017,11,07,10,59,7.20
2017,11,07,11,00,7.20
2017,11,07,11,01,7.20
2017,11,07,11,02,7.20
2017,11,07,11,03,7.20
2017,11,07,11,04,7.20
2017,11,07,11,05,7.20
2017,11,07,11,06,7.20
2017,11,07,11,07,7.20
2017,11,07,11,08,7.20
2017,11,07,11,09,7.20
2017,11,07,11,10,7.20
2017,11,07,11,11,7.20
2017,11,07,11,12,7.20
2017,11,07,11,13,7.20
2017,11,07,11,14,7.20
2017,11,07,11,15,7.20
2017,11,07,11,16,7.20
2017,11,07,11,17,7.20
2017,11,07,11,18,7.20
2017,11,07,11,19,7.20
2017,11,07,11,20,7.20
2017,11,07,11,21,7.20
2017,11,07,11,22,7.20
2017,11,07,11,23,7.20
2017,11,07,11,24,7.20
2017,11,07,11,25,7.20
2017,11,07,11,26,7.20
2017,11,07,11,27,7.20
2017,11,07,11,28,7.20
2017,11,07,11,29,7.20
2017,11,07,11,30,7.20
2017,11,07,11,31,7.30
2017,11,07,11,32,7.30
2017,11,07,11,33,7.30
2017,11,07,11,34,7.30
2017,11,07,11,35,7.30
2017,11,07,11,36,7.30
2017,11,07,11,37,7.40
2017,11,07,11,38,7.40
2017,11,07,11,39,7.40
2017,11,07,11,40,7.40
2017,11,07,11,41,7.40
2017,11,07,11,42,7.40
2017,11,07,11,43,7.40
2017,11,07,11,44,7.50
2017,11,07,11,45,7.50
2017,11,07,11,46,7.50
2017,11,07,11,47,7.50
2017,11,07,11,48,7.50
2017,11,07,11,49,7.50
2017,11,07,11,50,7.50
2017,11,07,11,51,7.50
2017,11,07,11,52,7.50
2017,11,07,11,53,7.50
2017,11,07,11,54,7.50
2017,11,07,11,55,7.60
2017,11,07,11,56,7.60
2017,11,07,11,57,7.60
2017,11,07,11,58,7.60
2017,11,07,11,59,7.60
2017,11,07,12,00,7.60
2017,11,07,12,01,7.60
2017,11,07,12,02,7.60
2017,11,07,12,03,7.70
2017,11,07,12,04,7.70
2017,11,07,12,05,7.70
2017,11,07,12,06,7.70
2017,11,07,12,07,7.70
2017,11,07,12,08,7.70
2017,11,07,12,09,7.70
2017,11,07,12,10,7.70
2017,11,07,12,11,7.70
2017,11,07,12,12,7.70
2017,11,07,12,13,7.60
2017,11,07,12,14,7.60
2017,11,07,12,15,7.60
2017,11,07,12,16,7.60
2017,11,07,12,17,7.70
2017,11,07,12,18,7.70
2017,11,07,12,19,7.70
2017,11,07,12,20,7.70
2017,11,07,12,21,7.70
2017,11,07,12,22,7.70
2017,11,07,12,23,7.70
2017,11,07,12,24,7.70
2017,11,07,12,25,7.80
2017,11,07,12,26,7.80
2017,11,07,12,27,7.80
2017,11,07,12,28,7.80
2017,11,07,12,29,7.80
2017,11,07,12,30,7.80
2017,11,07,12,31,7.80
2017,11,07,12,32,7.80
2017,11,07,12,33,7.90
2017,11,07,12,34,7.90
2017,11,07,12,35,7.90
2017,11,07,12,36,7.90
2017,11,07,12,37,7.90
2017,11,07,12,38,7.90
2017,11,07,12,39,7.90
2017,11,07,12,40,7.90
2017,11,07,12,41,7.90
2017,11,07,12,42,7.90
2017,11,07,12,43,7.90
2017,11,07,12,44,7.90
2017,11,07,12,45,7.90
2017,11,07,12,46,7.90
2017,11,07,12,47,7.90
2017,11,07,12,48,7.90
2017,11,07,12,49,8.00
2017,11,07,12,50,8.00
2017,11,07,12,51,8.00
2017,11,07,12,52,8.10
2017,11,07,12,53,8.10
2017,11,07,12,54,8.10
2017,11,07,12,55,8.10
2017,11,07,12,56,8.20
2017,11,07,12,57,8.20
2017,11,07,12,58,8.20
2017,11,07,12,59,8.20
2017,11,07,13,00,8.20
2017,11,07,13,01,8.20
2017,11,07,13,02,8.20
2017,11,07,13,03,8.20
2017,11,07,13,04,8.20
2017,11,07,13,05,8.10
2017,11,07,13,06,8.10
2017,11,07,13,07,8.10
2017,11,07,13,08,8.10
2017,11,07,13,09,8.10
2017,11,07,13,10,8.10
2017,11,07,13,11,8.10
2017,11,07,13,12,8.10
2017,11,07,13,13,8.10
2017,11,07,13,14,8.10
2017,11,07,13,15,8.10
2017,11,07,13,16,8.10
2017,11,07,13,17,8.20
2017,11,07,13,18,8.20
2017,11,07,13,19,8.20
2017,11,07,13,20,8.20
2017,11,07,13,21,8.20
2017,11,07,13,22,8.20
2017,11,07,13,23,8.20
2017,11,07,13,24,8.20
2017,11,07,13,25,8.20
2017,11,07,13,26,8.10
2017,11,07,13,27,8.10
2017,11,07,13,28,8.10
2017,11,07,13,29,8.10
2017,11,07,13,30,8.10
2017,11,07,13,31,8.10
2017,11,07,13,32,8.10
2017,11,07,13,33,8.10
2017,11,07,13,34,8.10
2017,11,07,13,35,8.10
2017,11,07,13,36,8.10
2017,11,07,13,37,8.10
2017,11,07,13,38,8.20
2017,11,07,13,39,8.20
2017,11,07,13,40,8.20
2017,11,07,13,41,8.20
2017,11,07,13,42,8.20
2017,11,07,13,43,8.20
2017,11,07,13,44,8.20
2017,11,07,13,45,8.20
2017,11,07,13,46,8.20
2017,11,07,13,47,8.20
2017,11,07,13,48,8.20
2017,11,07,13,49,8.20
2017,11,07,13,50,8.20
2017,11,07,13,51,8.20
2017,11,07,13,52,8.20
2017,11,07,13,53,8.20
2017,11,07,13,54,8.20
2017,11,07,13,55,8.20
2017,11,07,13,56,8.20
2017,11,07,13,57,8.20
2017,11,07,13,58,8.20
2017,11,07,13,59,8.20
2017,11,07,14,00,8.20
2017,11,07,14,01,8.20
2017,11,07,14,02,8.20
2017,11,07,14,03,8.20
2017,11,07,14,04,8.20
2017,11,07,14,05,8.20
2017,11,07,14,06,8.20
2017,11,07,14,07,8.20
2017,11,07,14,08,8.20
2017,11,07,14,09,8.20
2017,11,07,14,10,8.20
2017,11,07,14,11,8.20
2017,11,07,14,12,8.30
2017,11,07,14,13,8.30
2017,11,07,14,14,8.30
2017,11,07,14,15,8.30
2017,11,07,14,16,8.30
2017,11,07,14,17,8.30
2017,11,07,14,18,8.30
2017,11,07,14,19,8.30
2017,11,07,14,20,8.30
2017,11,07,14,21,8.40
2017,11,07,14,22,8.30
2017,11,07,14,23,8.30
2017,11,07,14,24,8.30
2017,11,07,14,25,8.30
2017,11,07,14,26,8.30
2017,11,07,14,27,8.30
2017,11,07,14,28,8.30
2017,11,07,14,29,8.30
2017,11,07,14,30,8.30
2017,11,07,14,31,8.20
2017,11,07,14,32,8.20
2017,11,07,14,33,8.20
2017,11,07,14,34,8.20
2017,11,07,14,35,8.20
2017,11,07,14,36,8.20
2017,11,07,14,37,8.20
2017,11,07,14,38,8.20
2017,11,07,14,39,8.20
2017,11,07,14,40,8.20
2017,11,07,14,41,8.20
2017,11,07,14,42,8.20
2017,11,07,14,43,8.20
2017,11,07,14,44,8.20
2017,11,07,14,45,8.20
2017,11,07,14,46,8.20
2017,11,07,14,47,8.20
2017,11,07,14,48,8.20
2017,11,07,14,49,8.20
2017,11,07,14,50,8.20
2017,11,07,14,51,8.20
2017,11,07,14,52,8.10
2017,11,07,14,53,8.10
2017,11,07,14,54,8.10
2017,11,07,14,55,8.10
2017,11,07,14,56,8.10
2017,11,07,14,57,8.10
2017,11,07,14,58,8.00
2017,11,07,14,59,8.00
2017,11,07,15,00,8.00
2017,11,07,15,01,8.00
2017,11,07,15,02,8.00
2017,11,07,15,03,8.00
2017,11,07,15,04,8.00
2017,11,07,15,05,8.00
2017,11,07,15,06,8.00
2017,11,07,15,07,8.00
2017,11,07,15,08,7.90
2017,11,07,15,09,7.90
2017,11,07,15,10,7.90
2017,11,07,15,11,7.90
2017,11,07,15,12,7.90
2017,11,07,15,13,7.90
2017,11,07,15,14,7.90
2017,11,07,15,15,7.90
2017,11,07,15,16,7.90
2017,11,07,15,17,7.90
2017,11,07,15,18,7.90
2017,11,07,15,19,7.90
2017,11,07,15,20,7.90
2017,11,07,15,21,7.90
2017,11,07,15,22,7.90
2017,11,07,15,23,7.90
2017,11,07,15,24,7.90
2017,11,07,15,25,7.90
2017,11,07,15,26,7.90
2017,11,07,15,27,7.90
2017,11,07,15,28,7.90
2017,11,07,15,29,7.90
2017,11,07,15,30,7.90
2017,11,07,15,31,7.90
2017,11,07,15,32,7.90
2017,11,07,15,33,7.80
2017,11,07,15,34,7.80
2017,11,07,15,35,7.80
2017,11,07,15,36,7.80
2017,11,07,15,37,7.80
2017,11,07,15,38,7.80
2017,11,07,15,39,7.80
2017,11,07,15,40,7.80
2017,11,07,15,41,7.80
2017,11,07,15,42,7.80
2017,11,07,15,43,7.80
2017,11,07,15,44,7.80
2017,11,07,15,45,7.80
2017,11,07,15,46,7.80
2017,11,07,15,47,7.80
2017,11,07,15,48,7.80
2017,11,07,15,49,7.80
2017,11,07,15,50,7.80
2017,11,07,15,51,7.70
2017,11,07,15,52,7.70
2017,11,07,15,53,7.70
2017,11,07,15,54,7.70
2017,11,07,15,55,7.60
2017,11,07,15,56,7.60
2017,11,07,15,57,7.60
2017,11,07,15,58,7.60
2017,11,07,15,59,7.60
2017,11,07,16,00,7.60
2017,11,07,16,01,7.50
2017,11,07,16,02,7.50
2017,11,07,16,03,7.50
2017,11,07,16,04,7.40
2017,11,07,16,05,7.40
2017,11,07,16,06,7.40
2017,11,07,16,07,7.40
2017,11,07,16,08,7.40
2017,11,07,16,09,7.40
2017,11,07,16,10,7.40
2017,11,07,16,11,7.40
2017,11,07,16,12,7.40
2017,11,07,16,13,7.30
2017,11,07,16,14,7.30
2017,11,07,16,15,7.30
2017,11,07,16,16,7.20
2017,11,07,16,17,7.20
2017,11,07,16,18,7.20
2017,11,07,16,19,7.20
2017,11,07,16,20,7.20
2017,11,07,16,21,7.20
2017,11,07,16,22,7.20
2017,11,07,16,23,7.20
2017,11,07,16,24,7.20
2017,11,07,16,25,7.20
2017,11,07,16,26,7.20
2017,11,07,16,27,7.10
2017,11,07,16,28,7.10
2017,11,07,16,29,7.10
2017,11,07,16,30,7.10
2017,11,07,16,31,7.10
2017,11,07,16,32,7.10
2017,11,07,16,33,7.10
2017,11,07,16,34,7.10
2017,11,07,16,35,7.10
2017,11,07,16,36,7.10
2017,11,07,16,37,7.00
2017,11,07,16,38,7.00
2017,11,07,16,39,7.00
2017,11,07,16,40,7.00
2017,11,07,16,41,7.00
2017,11,07,16,42,7.00
2017,11,07,16,43,7.00
2017,11,07,16,44,7.00
2017,11,07,16,45,7.00
2017,11,07,16,46,7.00
2017,11,07,16,47,7.00
2017,11,07,16,48,7.00
2017,11,07,16,49,7.00
2017,11,07,16,50,7.00
2017,11,07,16,51,7.00
2017,11,07,16,52,7.00
2017,11,07,16,53,6.90
2017,11,07,16,54,6.90
2017,11,07,16,55,6.90
2017,11,07,16,56,6.90
2017,11,07,16,57,6.90
2017,11,07,16,58,6.90
2017,11,07,16,59,6.90
2017,11,07,17,00,6.80
2017,11,07,17,01,6.80
2017,11,07,17,02,6.80
2017,11,07,17,03,6.80
2017,11,07,17,04,6.80
2017,11,07,17,05,6.80
2017,11,07,17,06,6.80
2017,11,07,17,07,6.80
2017,11,07,17,08,6.80
2017,11,07,17,09,6.80
2017,11,07,17,10,6.80
2017,11,07,17,11,6.80
2017,11,07,17,12,6.70
2017,11,07,17,13,6.70
2017,11,07,17,14,6.70
2017,11,07,17,15,6.70
2017,11,07,17,16,6.70
2017,11,07,17,17,6.70
2017,11,07,17,18,6.70
2017,11,07,17,19,6.70
2017,11,07,17,20,6.70
2017,11,07,17,21,6.70
2017,11,07,17,22,6.70
2017,11,07,17,23,6.70
2017,11,07,17,24,6.70
2017,11,07,17,25,6.70
2017,11,07,17,26,6.60
2017,11,07,17,27,6.60
2017,11,07,17,28,6.60
2017,11,07,17,29,6.60
2017,11,07,17,30,6.60
2017,11,07,17,31,6.60
2017,11,07,17,32,6.60
2017,11,07,17,33,6.60
2017,11,07,17,34,6.60
2017,11,07,17,35,6.60
2017,11,07,17,36,6.60
2017,11,07,17,37,6.60
2017,11,07,17,38,6.60
2017,11,07,17,39,6.60
2017,11,07,17,40,6.60
2017,11,07,17,41,6.60
2017,11,07,17,42,6.70
2017,11,07,17,43,6.70
2017,11,07,17,44,6.70
2017,11,07,17,45,6.80
2017,11,07,17,46,6.80
2017,11,07,17,47,6.80
2017,11,07,17,48,6.80
2017,11,07,17,49,6.80
2017,11,07,17,50,6.70
2017,11,07,17,51,6.70
2017,11,07,17,52,6.70
2017,11,07,17,53,6.70
2017,11,07,17,54,6.70
2017,11,07,17,55,6.70
2017,11,07,17,56,6.80
2017,11,07,17,57,6.70
2017,11,07,17,58,6.70
2017,11,07,17,59,6.70
2017,11,07,18,00,6.70
2017,11,07,18,01,6.70
2017,11,07,18,02,6.70
2017,11,07,18,03,6.70
2017,11,07,18,04,6.70
2017,11,07,18,05,6.70
2017,11,07,18,06,6.70